Regional Weather Roundup
Issued by NWS

Home | Current Version | Previous Version | Text Only | Print | Product List | Glossary On
Versions: 1 2 3 4 5 6 7 8 9 10 11 12 13 14 15 16 17 18 19 20 21 22 23 24 25 26 27 28 29 30 31 32 33 34 35 36 37 38 39 40 41 42 43 44 45 46 47 48 49 50
000
ASUS46 KSTO 200909
RWRCA

NORTHERN AND CENTRAL CA REGIONAL WEATHER ROUNDUP
NATIONAL WEATHER SERVICE SACRAMENTO CA
100 AM PST MON FEB 20 2017

NOTE: FAIR INDICATES FEW OR NO CLOUDS BELOW 12,000 FEET WITH NO
SIGNIFICANT WEATHER AND/OR OBSTRUCTIONS TO VISIBILITY.

CAZ001-003-201000-
NORTHWEST AREA

CITY           SKY/WX    TMP DP  RH WIND       PRES   REMARKS
CRESCENT CITY  LGT RAIN N/A N/A N/A S29G39    29.49F
ARCATA         NOT AVBL
SHELTER COVE   NOT AVBL
UKIAH          CLOUDY    53  50  89 S10G16    29.79S
$$

CAZ006-505>513-201000-
BAY AREA

CITY           SKY/WX    TMP DP  RH WIND       PRES   REMARKS
SANTA ROSA     LGT RAIN  52  52 100 SE13G23   29.81F FOG
SAN RAFAEL     N/A       56  MM  MM MISG
NAPA           LGT RAIN  54  51  90 E9        29.85F FOG
CONCORD        CLOUDY    58  51  78 CALM      29.87R
OAKLAND CITY   N/A      MM  MM  MM MISG
OAKLAND        LGT RAIN  55  53  93 SE21G35   29.85F
SAN FRAN CITY  N/A       53  MM  87 MISG
SAN FRAN ARPT  RAIN      54  50  86 SE22      29.83F
LIVERMORE      LGT RAIN  56  49  77 VRB6      29.88R
HAYWARD        LGT RAIN  55  49  80 S26G35    29.85F
REDWOOD CITY   N/A       MM  MM  MM MISG
MOFFETT ARPT   LGT RAIN  53  51  93 SE10      29.90R
SAN JOSE ARPT  LGT RAIN  54  50  86 E18       29.90S
$$
CAZ034-037-514>518-201000-
CENTRAL COAST

CITY           SKY/WX    TMP DP  RH WIND       PRES   REMARKS
WATSONVILLE    LGT RAIN  51  51 100 N3        29.94F
SALINAS        CLOUDY    52  49  89 E25       29.92F
MONTEREY       LGT RAIN  53  52  96 SW5       29.92S
PT PIEDRAS BLS NOT AVBL
SAN LUIS OBISP LGT RAIN  56  53  90 SE9       30.06R FOG
SANTA MARIA    CLOUDY    55  51  86 SE20G26   30.06R
$$
CAZ015-016-201000-
NORTHERN SACRAMENTO VALLEY

CITY           SKY/WX    TMP DP  RH WIND       PRES   REMARKS
REDDING        LGT RAIN  50  48  93 S26G36    29.75F
RED BLUFF      LGT RAIN  50  49  96 S24G31    29.78F FOG
OROVILLE       RAIN      52  48  86 S37G45    29.85F FOG
$$
CAZ016>018-201000-
SOUTHERN SACRAMENTO VALLEY

CITY           SKY/WX    TMP DP  RH WIND       PRES   REMARKS
AUBURN         CLOUDY    50  46  87 SE18G28   29.87F
BEALE AFB      RAIN      52  48  87 S24G32    29.86R FOG
LINCOLN        CLOUDY    52  45  76 S26G38    29.85F
MARYSVILLE     HVY RAIN  52  49  89 S30G38    29.88R FOG
SAC INTL ARPT  LGT RAIN  53  50  89 S23G35    29.87S
MATHER AIRPORT NOT AVBL
DOWNTOWN SAC   N/A       54  MM  MM MISG
SAC EXEC ARPT  LGT RAIN  53  50  89 S17G28    29.89R
VACAVILLE      RAIN      52  51  97 S9G17     29.89F FOG
TRAVIS AFB     LGT RAIN  52  52 100 SE21      29.85F FOG
$$
CAZ019>021-201000-
SAN JOAQUIN VALLEY

CITY           SKY/WX    TMP DP  RH WIND       PRES   REMARKS
STOCKTON       CLOUDY    54  50  86 SE21G32   29.91S
MODESTO        CLOUDY    54  48  80 SE15G22   29.94F
MERCED         CLOUDY    51  48  89 SE18      29.98F
LEMOORE        CLOUDY    51  50  96 SE14      30.04F
FRESNO         CLOUDY    52  48  86 SE12      30.04F
HANFORD        CLOUDY    52  52 100 E5        30.05F
PORTERVILLE    RAIN      53  52  96 E6        30.07S
BAKERSFIELD    CLOUDY    53  50  89 S6        30.03F
$$
CAZ011-012-071-201000-
NORTHERN MOUNTAINS

CITY           SKY/WX    TMP DP  RH WIND       PRES   REMARKS
YREKA          MOCLDY    46  35  65 S28G35    29.56F
MOUNT SHASTA   RAIN      38  36  92 SE5       29.68F FOG     WCI  34
ALTURAS        PTCLDY    39  32  76 S13       29.71F WCI  31
$$
CAZ011-012-071-201000-
SIERRA NEVADA MTNS

CITY           SKY/WX    TMP DP  RH WIND       PRES   REMARKS
BLUE CANYON    LGT RAIN  38  38 100 SE18G28   29.88F VSB 1/4 WCI  28
TRUCKEE        CLOUDY    36  30  80 CALM      29.90F
TAHOE VLY ARPT LGT RAIN  33  33 100 CALM      29.90F
MAMMOTH LAKES  CLOUDY    35  32  88 E8        30.01F WCI  29
$$




USA.gov is the U.S. government's official web portal to all federal, state and local government web resources and services.